Hourly Weather Kozniewice

Today, 21 October, Wednesday

Time Temperature Precipitation Wind Pressure Humidity
00:00 +8°C° 0 mm 6 mps 744 mmHg 66%
01:00 +8°C° 0 mm 6 mps 744 mmHg 65%
02:00 +8°C° 0 mm 6 mps 744 mmHg 65%
03:00 +9°C° 0 mm 6 mps 744 mmHg 65%
04:00 +9°C° 0 mm 6 mps 743 mmHg 65%
05:00 +9°C° 0 mm 6 mps 743 mmHg 65%
06:00 +9°C° 0 mm 6 mps 743 mmHg 64%
07:00 +9°C° 0 mm 6 mps 743 mmHg 62%
08:00 +10°C° 0 mm 6 mps 743 mmHg 60%
09:00 +11°C° 0 mm 6 mps 743 mmHg 58%
10:00 +11°C° 0 mm 6 mps 743 mmHg 57%
11:00 +13°C° 0 mm 6 mps 743 mmHg 57%
12:00 +13°C° 0 mm 6 mps 743 mmHg 57%
13:00 +14°C° 0 mm 6 mps 742 mmHg 59%
14:00 +14°C° 0 mm 5 mps 742 mmHg 62%
15:00 +13°C° 0 mm 5 mps 742 mmHg 65%
16:00 +13°C° 0 mm 4 mps 741 mmHg 68%
17:00 +12°C° 0 mm 5 mps 742 mmHg 69%
18:00 +12°C° 0 mm 5 mps 742 mmHg 71%
19:00 +10°C° 0 mm 5 mps 742 mmHg 72%
20:00 +10°C° 0 mm 5 mps 742 mmHg 73%
21:00 +10°C° 0 mm 5 mps 742 mmHg 74%
22:00 +10°C° 0 mm 5 mps 742 mmHg 75%
23:00 +10°C° 0 mm 5 mps 742 mmHg 75%

Tomorrow, 22 October, Thursday

Time Temperature Precipitation Wind Pressure Humidity
00:00 +10°C° 0 mm 5 mps 743 mmHg 74%
01:00 +10°C° 0 mm 5 mps 743 mmHg 74%
02:00 +10°C° 0 mm 5 mps 743 mmHg 75%
03:00 +10°C° 0 mm 5 mps 743 mmHg 75%
04:00 +10°C° 0 mm 5 mps 743 mmHg 75%
05:00 +10°C° 0 mm 5 mps 743 mmHg 75%
06:00 +10°C° 0 mm 5 mps 743 mmHg 75%
07:00 +10°C° 0 mm 5 mps 743 mmHg 75%
08:00 +13°C° 0 mm 5 mps 743 mmHg 69%
09:00 +14°C° 0 mm 5 mps 744 mmHg 64%
10:00 +16°C° 0 mm 5 mps 744 mmHg 59%
11:00 +17°C° 0 mm 5 mps 744 mmHg 57%
12:00 +19°C° 0 mm 5 mps 744 mmHg 56%
13:00 +20°C° 0 mm 4 mps 744 mmHg 55%
14:00 +19°C° 0 mm 4 mps 744 mmHg 59%
15:00 +18°C° 0 mm 3 mps 744 mmHg 63%
16:00 +17°C° 0 mm 3 mps 743 mmHg 68%
17:00 +16°C° 0 mm 3 mps 744 mmHg 70%
18:00 +16°C° 0 mm 3 mps 744 mmHg 72%
19:00 +14°C° 0 mm 4 mps 744 mmHg 74%
20:00 +14°C° 0 mm 4 mps 744 mmHg 74%
21:00 +13°C° 0 mm 4 mps 744 mmHg 74%
22:00 +13°C° 0 mm 3 mps 744 mmHg 74%
23:00 +13°C° 0 mm 3 mps 744 mmHg 73%

Day after tomorrow, 23 October, Friday

Time Temperature Precipitation Wind Pressure Humidity
00:00 +13°C° 0 mm 3 mps 744 mmHg 73%
01:00 +13°C° 0 mm 3 mps 744 mmHg 73%
02:00 +13°C° 0 mm 3 mps 743 mmHg 74%
03:00 +12°C° 0 mm 3 mps 743 mmHg 76%
04:00 +12°C° 0 mm 3 mps 743 mmHg 77%
05:00 +12°C° 0 mm 3 mps 742 mmHg 78%
06:00 +11°C° 0 mm 3 mps 742 mmHg 78%
07:00 +11°C° 0 mm 3 mps 742 mmHg 78%
08:00 +12°C° 0 mm 3 mps 742 mmHg 74%
09:00 +14°C° 0 mm 4 mps 742 mmHg 70%
10:00 +15°C° 0 mm 4 mps 741 mmHg 66%
11:00 +15°C° 0 mm 4 mps 741 mmHg 64%
12:00 +17°C° 0 mm 4 mps 741 mmHg 62%
13:00 +18°C° 0 mm 3 mps 741 mmHg 60%
14:00 +17°C° 0 mm 3 mps 741 mmHg 64%
15:00 +17°C° 0 mm 2 mps 740 mmHg 68%
16:00 +16°C° 0 mm 2 mps 740 mmHg 71%
17:00 +16°C° 0 mm 2 mps 740 mmHg 73%
18:00 +16°C° 0 mm 2 mps 740 mmHg 74%
19:00 +16°C° 0 mm 2 mps 740 mmHg 75%
20:00 +15°C° 0.1 mm 2 mps 740 mmHg 79%
21:00 +15°C° 0.1 mm 2 mps 740 mmHg 83%
22:00 +15°C° 0.1 mm 2 mps 740 mmHg 86%
23:00 +13°C° 0.7 mm 3 mps 740 mmHg 89%

24 October, Saturday

Time Temperature Precipitation Wind Pressure Humidity
00:00 +13°C° 0.7 mm 3 mps 740 mmHg 91%
01:00 +13°C° 0.7 mm 3 mps 740 mmHg 94%
02:00 +13°C° 1.3 mm 3 mps 740 mmHg 94%
03:00 +13°C° 1.3 mm 4 mps 740 mmHg 95%
04:00 +13°C° 1.3 mm 4 mps 740 mmHg 95%
05:00 +13°C° 1.1 mm 4 mps 740 mmHg 94%
06:00 +13°C° 1.1 mm 4 mps 740 mmHg 94%
07:00 +13°C° 1.1 mm 4 mps 740 mmHg 93%
08:00 +13°C° 0.1 mm 5 mps 740 mmHg 90%
09:00 +13°C° 0.1 mm 6 mps 741 mmHg 86%
10:00 +14°C° 0.1 mm 6 mps 741 mmHg 83%
11:00 +14°C° 0 mm 6 mps 741 mmHg 79%
12:00 +15°C° 0 mm 6 mps 741 mmHg 75%
13:00 +15°C° 0 mm 6 mps 741 mmHg 71%
14:00 +15°C° 0.2 mm 6 mps 742 mmHg 73%
15:00 +14°C° 0.2 mm 6 mps 742 mmHg 74%
16:00 +13°C° 0.2 mm 6 mps 742 mmHg 76%
17:00 +13°C° 0 mm 5 mps 743 mmHg 77%
18:00 +12°C° 0 mm 4 mps 743 mmHg 79%
19:00 +11°C° 0 mm 3 mps 744 mmHg 80%
20:00 +11°C° 0 mm 3 mps 744 mmHg 81%
21:00 +10°C° 0 mm 4 mps 745 mmHg 82%
22:00 +10°C° 0 mm 4 mps 745 mmHg 82%
23:00 +9°C° 0 mm 3 mps 745 mmHg 84%

25 October, Sunday

Time Temperature Precipitation Wind Pressure Humidity
00:00 +8°C° 0 mm 3 mps 745 mmHg 86%
01:00 +8°C° 0 mm 2 mps 745 mmHg 88%
02:00 +7°C° 0 mm 2 mps 745 mmHg 89%
03:00 +7°C° 0 mm 2 mps 745 mmHg 89%
04:00 +7°C° 0 mm 2 mps 745 mmHg 90%
05:00 +7°C° 0 mm 2 mps 745 mmHg 89%
06:00 +7°C° 0 mm 2 mps 745 mmHg 88%
07:00 +8°C° 0 mm 1 mps 745 mmHg 87%
08:00 +8°C° 0 mm 2 mps 745 mmHg 81%
09:00 +10°C° 0 mm 2 mps 745 mmHg 75%
10:00 +13°C° 0 mm 2 mps 745 mmHg 69%
11:00 +13°C° 0 mm 3 mps 745 mmHg 65%
12:00 +13°C° 0 mm 3 mps 745 mmHg 62%
13:00 +14°C° 0 mm 3 mps 744 mmHg 59%
14:00 +14°C° 0 mm 3 mps 744 mmHg 62%
15:00 +14°C° 0 mm 2 mps 744 mmHg 66%
16:00 +13°C° 0 mm 2 mps 744 mmHg 69%
17:00 +12°C° 0 mm 3 mps 744 mmHg 72%
18:00 +11°C° 0 mm 3 mps 744 mmHg 76%
19:00 +10°C° 0 mm 4 mps 744 mmHg 79%
20:00 +10°C° 0 mm 4 mps 744 mmHg 78%
21:00 +8°C° 0 mm 4 mps 744 mmHg 78%
22:00 +8°C° 0 mm 4 mps 744 mmHg 77%
23:00 +9°C° 0 mm 3 mps 743 mmHg 79%

26 October, Monday

Time Temperature Precipitation Wind Pressure Humidity
00:00 +8°C° 0 mm 3 mps 743 mmHg 81%
01:00 +8°C° 0 mm 3 mps 743 mmHg 83%
02:00 +8°C° 0 mm 3 mps 743 mmHg 85%
03:00 +7°C° 0 mm 3 mps 743 mmHg 86%
04:00 +7°C° 0 mm 3 mps 742 mmHg 88%
05:00 +7°C° 0 mm 3 mps 742 mmHg 89%
06:00 +7°C° 0 mm 3 mps 742 mmHg 91%
07:00 +7°C° 0 mm 3 mps 742 mmHg 92%
08:00 +8°C° 0 mm 3 mps 742 mmHg 87%
09:00 +9°C° 0 mm 3 mps 742 mmHg 82%
10:00 +11°C° 0 mm 3 mps 742 mmHg 77%
11:00 +12°C° 0 mm 3 mps 742 mmHg 73%
12:00 +13°C° 0 mm 3 mps 741 mmHg 70%
13:00 +14°C° 0 mm 3 mps 741 mmHg 67%
14:00 +14°C° 0 mm 3 mps 741 mmHg 70%
15:00 +13°C° 0 mm 3 mps 741 mmHg 73%
16:00 +13°C° 0 mm 2 mps 741 mmHg 77%
17:00 +13°C° 0 mm 2 mps 741 mmHg 79%
18:00 +11°C° 0 mm 3 mps 741 mmHg 82%
19:00 +11°C° 0 mm 3 mps 741 mmHg 84%
20:00 +10°C° 0 mm 2 mps 741 mmHg 86%
21:00 +10°C° 0 mm 2 mps 741 mmHg 88%
22:00 +10°C° 0 mm 2 mps 742 mmHg 90%
23:00 +9°C° 0 mm 2 mps 742 mmHg 91%

27 October, Tuesday

Time Temperature Precipitation Wind Pressure Humidity
00:00 +9°C° 0 mm 2 mps 742 mmHg 91%
01:00 +9°C° 0 mm 2 mps 742 mmHg 92%
02:00 +9°C° 0 mm 2 mps 741 mmHg 92%
03:00 +8°C° 0 mm 2 mps 741 mmHg 92%
04:00 +8°C° 0 mm 2 mps 741 mmHg 93%
05:00 +8°C° 0 mm 2 mps 742 mmHg 93%
06:00 +8°C° 0 mm 2 mps 742 mmHg 93%
07:00 +8°C° 0 mm 2 mps 742 mmHg 93%
08:00 +9°C° 0 mm 2 mps 742 mmHg 88%
09:00 +12°C° 0 mm 2 mps 742 mmHg 83%
10:00 +13°C° 0 mm 2 mps 742 mmHg 78%
11:00 +13°C° 0 mm 2 mps 742 mmHg 75%
12:00 +14°C° 0 mm 2 mps 742 mmHg 73%
13:00 +15°C° 0 mm 2 mps 743 mmHg 70%
14:00 +14°C° 0 mm 2 mps 743 mmHg 73%
15:00 +14°C° 0 mm 1 mps 743 mmHg 75%
16:00 +13°C° 0 mm 1 mps 743 mmHg 78%
17:00 +13°C° 0 mm 1 mps 743 mmHg 79%
18:00 +13°C° 0 mm 1 mps 743 mmHg 81%
19:00 +12°C° 0 mm 2 mps 744 mmHg 82%
20:00 +12°C° 0 mm 2 mps 744 mmHg 83%
21:00 +12°C° 0 mm 2 mps 744 mmHg 85%
22:00 +10°C° 0 mm 2 mps 745 mmHg 86%
23:00 +10°C° 0 mm 2 mps 745 mmHg 86%
Show more